When you browse on this site, cookies collect data to enhance your experience and personalize the content and advertising you see.
Visit our Privacy Policy to learn more. By continuing to use the site, you agree to this use of cookies and data.
  • In Portugal
  • List of Countries
  • For 7 days
  • Water Temperature
  • Weather Map
  • Weather Widgets
  • user-avatar
    Login

    Hourly Weather Santiago del Estero

    Today, 15 October, Tuesday

    Time Temperature Precipitation Wind Pressure Humidity
    00:00 +9°C° 0.1 mm 5 mps 751 mmHg 77%
    01:00 +8°C° 0.1 mm 5 mps 751 mmHg 78%
    02:00 +8°C° 0 mm 5 mps 751 mmHg 78%
    03:00 +8°C° 0.1 mm 5 mps 751 mmHg 79%
    04:00 +8°C° 0.1 mm 5 mps 750 mmHg 79%
    05:00 +8°C° 0.1 mm 5 mps 750 mmHg 80%
    06:00 +8°C° 0.1 mm 4 mps 751 mmHg 80%
    07:00 +8°C° 0.1 mm 4 mps 751 mmHg 81%
    08:00 +8°C° 0.1 mm 4 mps 752 mmHg 81%
    09:00 +10°C° 0 mm 4 mps 752 mmHg 80%
    10:00 +10°C° 0 mm 4 mps 751 mmHg 79%
    11:00 +10°C° 0 mm 4 mps 751 mmHg 78%
    12:00 +11°C° 0 mm 4 mps 751 mmHg 78%
    13:00 +11°C° 0 mm 4 mps 750 mmHg 78%
    14:00 +11°C° 0 mm 4 mps 749 mmHg 78%
    15:00 +11°C° 0 mm 3 mps 749 mmHg 77%
    16:00 +11°C° 0 mm 3 mps 748 mmHg 77%
    17:00 +12°C° 0 mm 3 mps 748 mmHg 77%
    18:00 +12°C° 0 mm 3 mps 748 mmHg 77%
    19:00 +11°C° 0 mm 3 mps 749 mmHg 77%
    20:00 +11°C° 0 mm 3 mps 750 mmHg 77%
    21:00 +11°C° 0 mm 3 mps 750 mmHg 78%
    22:00 +11°C° 0 mm 3 mps 750 mmHg 78%
    23:00 +11°C° 0 mm 3 mps 749 mmHg 78%

    Tomorrow, 16 October, Wednesday

    Time Temperature Precipitation Wind Pressure Humidity
    00:00 +10°C° 0 mm 3 mps 749 mmHg 79%
    01:00 +10°C° 0 mm 2 mps 749 mmHg 79%
    02:00 +10°C° 0 mm 2 mps 748 mmHg 80%
    03:00 +10°C° 0 mm 2 mps 748 mmHg 80%
    04:00 +10°C° 0 mm 2 mps 748 mmHg 80%
    05:00 +10°C° 0 mm 2 mps 748 mmHg 81%
    06:00 +11°C° 0 mm 1 mps 748 mmHg 80%
    07:00 +12°C° 0 mm 1 mps 749 mmHg 80%
    08:00 +12°C° 0 mm 1 mps 749 mmHg 79%
    09:00 +12°C° 0 mm 1 mps 749 mmHg 78%
    10:00 +13°C° 0 mm 1 mps 748 mmHg 77%
    11:00 +13°C° 0 mm 1 mps 748 mmHg 75%
    12:00 +14°C° 0 mm 2 mps 747 mmHg 71%
    13:00 +16°C° 0 mm 3 mps 746 mmHg 67%
    14:00 +17°C° 0 mm 4 mps 745 mmHg 63%
    15:00 +17°C° 0 mm 3 mps 744 mmHg 64%
    16:00 +17°C° 0 mm 3 mps 744 mmHg 65%
    17:00 +17°C° 0 mm 2 mps 743 mmHg 65%
    18:00 +16°C° 0 mm 2 mps 744 mmHg 67%
    19:00 +16°C° 0 mm 2 mps 744 mmHg 70%
    20:00 +16°C° 0 mm 2 mps 745 mmHg 72%
    21:00 +15°C° 0 mm 2 mps 745 mmHg 74%
    22:00 +15°C° 0 mm 2 mps 745 mmHg 77%
    23:00 +14°C° 0 mm 2 mps 745 mmHg 79%

    Day after tomorrow, 17 October, Thursday

    Time Temperature Precipitation Wind Pressure Humidity
    00:00 +14°C° 0 mm 1 mps 744 mmHg 83%
    01:00 +13°C° 0 mm 1 mps 744 mmHg 86%
    02:00 +13°C° 0 mm 1 mps 744 mmHg 89%
    03:00 +13°C° 0 mm 1 mps 744 mmHg 88%
    04:00 +13°C° 0 mm 1 mps 744 mmHg 88%
    05:00 +13°C° 0 mm 1 mps 744 mmHg 87%
    06:00 +14°C° 0 mm 1 mps 744 mmHg 83%
    07:00 +15°C° 0 mm 1 mps 744 mmHg 79%
    08:00 +16°C° 0 mm 2 mps 745 mmHg 75%
    09:00 +18°C° 0 mm 2 mps 745 mmHg 70%
    10:00 +19°C° 0 mm 2 mps 745 mmHg 65%
    11:00 +20°C° 0 mm 2 mps 744 mmHg 60%
    12:00 +23°C° 0 mm 2 mps 744 mmHg 56%
    13:00 +24°C° 0 mm 2 mps 743 mmHg 53%
    14:00 +25°C° 0 mm 3 mps 743 mmHg 49%
    15:00 +25°C° 0 mm 3 mps 742 mmHg 50%
    16:00 +25°C° 0 mm 3 mps 742 mmHg 50%
    17:00 +25°C° 0 mm 3 mps 742 mmHg 51%
    18:00 +24°C° 0 mm 3 mps 742 mmHg 56%
    19:00 +23°C° 0 mm 2 mps 743 mmHg 60%
    20:00 +21°C° 0 mm 2 mps 744 mmHg 65%
    21:00 +20°C° 0 mm 2 mps 744 mmHg 68%
    22:00 +20°C° 0 mm 2 mps 744 mmHg 72%
    23:00 +20°C° 0 mm 1 mps 745 mmHg 75%

    18 October, Friday

    Time Temperature Precipitation Wind Pressure Humidity
    00:00 +19°C° 0 mm 1 mps 745 mmHg 77%
    01:00 +19°C° 0 mm 1 mps 744 mmHg 80%
    02:00 +18°C° 0 mm 1 mps 744 mmHg 83%
    03:00 +18°C° 0 mm 1 mps 745 mmHg 83%
    04:00 +19°C° 0 mm 1 mps 745 mmHg 83%
    05:00 +19°C° 0 mm 1 mps 745 mmHg 83%
    06:00 +19°C° 0.1 mm 1 mps 746 mmHg 82%
    07:00 +20°C° 0.1 mm 1 mps 746 mmHg 82%
    08:00 +20°C° 0.1 mm 1 mps 747 mmHg 81%
    09:00 +20°C° 0.1 mm 1 mps 747 mmHg 80%
    10:00 +21°C° 0.1 mm 1 mps 747 mmHg 78%
    11:00 +21°C° 0.1 mm 1 mps 747 mmHg 77%
    12:00 +21°C° 0 mm 1 mps 747 mmHg 75%
    13:00 +22°C° 0 mm 1 mps 746 mmHg 73%
    14:00 +22°C° 0 mm 1 mps 746 mmHg 70%
    15:00 +21°C° 0 mm 2 mps 745 mmHg 70%
    16:00 +21°C° 0 mm 2 mps 745 mmHg 71%
    17:00 +21°C° 0 mm 2 mps 745 mmHg 71%
    18:00 +20°C° 0 mm 2 mps 745 mmHg 73%
    19:00 +20°C° 0 mm 2 mps 746 mmHg 76%
    20:00 +19°C° 0 mm 2 mps 746 mmHg 78%
    21:00 +19°C° 0 mm 2 mps 746 mmHg 78%
    22:00 +19°C° 0 mm 2 mps 747 mmHg 77%
    23:00 +19°C° 0 mm 2 mps 747 mmHg 76%

    19 October, Saturday

    Time Temperature Precipitation Wind Pressure Humidity
    00:00 +19°C° 0 mm 2 mps 747 mmHg 77%
    01:00 +20°C° 0 mm 1 mps 747 mmHg 78%
    02:00 +20°C° 0 mm 1 mps 746 mmHg 79%
    03:00 +19°C° 0 mm 1 mps 746 mmHg 79%
    04:00 +19°C° 0 mm 1 mps 746 mmHg 80%
    05:00 +19°C° 0 mm 1 mps 746 mmHg 80%
    06:00 +20°C° 0 mm 1 mps 747 mmHg 77%
    07:00 +20°C° 0 mm 1 mps 747 mmHg 74%
    08:00 +19°C° 0 mm 0 mps 747 mmHg 70%
    09:00 +21°C° 0 mm 1 mps 747 mmHg 69%
    10:00 +21°C° 0 mm 1 mps 747 mmHg 68%
    11:00 +20°C° 0 mm 2 mps 747 mmHg 67%
    12:00 +21°C° 0 mm 2 mps 747 mmHg 62%
    13:00 +22°C° 0 mm 3 mps 746 mmHg 57%
    14:00 +22°C° 0 mm 4 mps 746 mmHg 52%
    15:00 +21°C° 0 mm 4 mps 746 mmHg 56%
    16:00 +21°C° 0 mm 4 mps 745 mmHg 60%
    17:00 +20°C° 0 mm 4 mps 745 mmHg 64%
    18:00 +19°C° 0 mm 3 mps 745 mmHg 67%
    19:00 +19°C° 0 mm 3 mps 745 mmHg 70%
    20:00 +18°C° 0 mm 2 mps 746 mmHg 73%
    21:00 +18°C° 0 mm 2 mps 746 mmHg 75%
    22:00 +18°C° 0 mm 2 mps 745 mmHg 76%
    23:00 +17°C° 0 mm 2 mps 745 mmHg 77%

    20 October, Sunday

    Time Temperature Precipitation Wind Pressure Humidity
    00:00 +17°C° 0 mm 2 mps 745 mmHg 76%
    01:00 +17°C° 0 mm 2 mps 744 mmHg 75%
    02:00 +17°C° 0 mm 2 mps 743 mmHg 74%
    03:00 +18°C° 0 mm 1 mps 743 mmHg 73%
    04:00 +18°C° 0 mm 1 mps 744 mmHg 72%
    05:00 +18°C° 0 mm 1 mps 744 mmHg 71%
    06:00 +18°C° 0 mm 1 mps 744 mmHg 70%
    07:00 +18°C° 0 mm 1 mps 744 mmHg 69%
    08:00 +19°C° 0 mm 1 mps 744 mmHg 68%
    09:00 +19°C° 0 mm 1 mps 744 mmHg 66%
    10:00 +19°C° 0 mm 2 mps 744 mmHg 65%
    11:00 +19°C° 0 mm 2 mps 744 mmHg 63%
    12:00 +20°C° 0 mm 3 mps 744 mmHg 61%
    13:00 +21°C° 0 mm 4 mps 743 mmHg 59%
    14:00 +22°C° 0 mm 4 mps 743 mmHg 57%
    15:00 +22°C° 0 mm 4 mps 743 mmHg 59%
    16:00 +21°C° 0 mm 4 mps 742 mmHg 62%
    17:00 +21°C° 0 mm 4 mps 742 mmHg 64%
    18:00 +20°C° 0 mm 3 mps 743 mmHg 69%
    19:00 +18°C° 0 mm 2 mps 743 mmHg 74%
    20:00 +17°C° 0 mm 2 mps 744 mmHg 78%
    21:00 +18°C° 0 mm 1 mps 744 mmHg 81%
    22:00 +16°C° 0 mm 1 mps 744 mmHg 84%
    23:00 +16°C° 0 mm 1 mps 744 mmHg 86%
    Show more